{"data":{"norad_id":60392,"epoch":"2026-09-22T20:20:32.170848Z","epoch_age_seconds":83440,"freshness":"FRESH","line1":"1 60392U 24140P   26265.84759457  .00000031  00000+0  29715-4 0  9992","line2":"2 60392  88.9638 269.7399 0018722 105.8030 254.5187 13.51025955105639","mean_motion":13.51025955,"eccentricity":0.0018722,"inclination_deg":88.9638,"raan_deg":269.7399,"arg_perigee_deg":105.803,"mean_anomaly_deg":254.5187,"bstar":2.9715e-5,"rev_number":10563,"period_min":106.58566511404,"perigee_km":1054.5446427393,"apogee_km":1082.4277786895,"semimajor_km":7446.6232107144,"source":"CELESTRAK","updated_at":"2026-09-23T09:00:20.600609Z"}}